| time (UTC) | temp F | wind direction | speed knots | gust knots | rain 1hr in | rain 24hr in | rain mn in | humidity % | barometer mb |
| 20260508205139 | 58 | 285 | 2.6 | 7.8 | 0.00 | 0.00 | 0.00 | 39 | 1008.6 |
| 20260508204615 | 58 | 277 | 1.7 | 5.2 | 0.00 | 0.00 | 0.00 | 39 | 1008.5 |
| 20260508204101 | 58 | 292 | 0.9 | 4.3 | 0.00 | 0.00 | 0.00 | 41 | 1008.5 |
| 20260508202127 | 58 | 158 | 1.7 | 4.3 | 0.00 | 0.00 | 0.00 | 41 | 1008.4 |
| 20260508201125 | 59 | 182 | 2.6 | 6.1 | 0.00 | 0.00 | 0.00 | 40 | 1008.4 |
| 20260508200123 | 59 | 275 | 2.6 | 7.8 | 0.00 | 0.00 | 0.00 | 44 | 1008.4 |
| 20260508195123 | 59 | 232 | 2.6 | 7.0 | 0.00 | 0.00 | 0.00 | 40 | 1008.5 |
| 20260508194602 | 59 | 200 | 2.6 | 12.2 | 0.00 | 0.00 | 0.00 | 42 | 1008.5 |
| 20260508193107 | 59 | 237 | 2.6 | 5.2 | 0.00 | 0.00 | 0.00 | 42 | 1008.5 |
| 20260508192103 | 60 | 329 | 1.7 | 7.0 | 0.00 | 0.00 | 0.00 | 41 | 1008.6 |
| 20260508191041 | 60 | 306 | 2.6 | 6.1 | 0.00 | 0.00 | 0.00 | 44 | 1008.6 |
| 20260508190039 | 60 | 272 | 2.6 | 7.0 | 0.00 | 0.00 | 0.00 | 45 | 1008.6 |
| 20260508185038 | 59 | 285 | 2.6 | 8.7 | 0.00 | 0.00 | 0.00 | 40 | 1008.6 |
| 20260508184034 | 60 | 134 | 2.6 | 7.8 | 0.00 | 0.00 | 0.00 | 43 | 1008.6 |
| 20260508183033 | 60 | 306 | 2.6 | 8.7 | 0.00 | 0.00 | 0.00 | 41 | 1008.6 |
| 20260508182033 | 60 | 286 | 2.6 | 7.0 | 0.00 | 0.00 | 0.00 | 39 | 1008.6 |
| 20260508181034 | 60 | 301 | 1.7 | 6.1 | 0.00 | 0.00 | 0.00 | 39 | 1008.3 |
| 20260508180020 | 59 | 269 | 1.7 | 4.3 | 0.00 | 0.00 | 0.00 | 41 | 1008.4 |
| 20260508175019 | 59 | 17 | 1.7 | 6.1 | 0.00 | 0.00 | 0.00 | 39 | 1008.4 |
| 20260508174500 | 60 | 296 | 2.6 | 6.1 | 0.00 | 0.00 | 0.00 | 41 | 1008.6 |
| 20260508173019 | 60 | 234 | 2.6 | 6.1 | 0.00 | 0.00 | 0.00 | 41 | 1008.6 |
| 20260508172020 | 60 | 243 | 1.7 | 5.2 | 0.00 | 0.00 | 0.00 | 42 | 1008.6 |
| 20260508171934 | 60 | 29 | 2.6 | 6.1 | 0.00 | 0.00 | 0.00 | 44 | 1008.4 |
| 20260508170451 | 59 | 227 | 2.6 | 11.3 | 0.00 | 0.00 | 0.00 | 44 | 1008.6 |
| 20260508165003 | 59 | 202 | 2.6 | 6.1 | 0.00 | 0.00 | 0.00 | 46 | 1008.6 |
| 20260508164003 | 59 | 227 | 2.6 | 6.1 | 0.00 | 0.00 | 0.00 | 41 | 1008.6 |
| 20260508163003 | 60 | 252 | 2.6 | 6.1 | 0.00 | 0.00 | 0.00 | 43 | 1008.5 |
| 20260508161957 | 60 | 292 | 1.7 | 4.3 | 0.00 | 0.00 | 0.00 | 44 | 1008.5 |
| 20260508161439 | 60 | 276 | 1.7 | 6.1 | 0.00 | 0.00 | 0.00 | 52 | 1008.6 |
| 20260508155956 | 61 | 114 | 1.7 | 6.1 | 0.00 | 0.00 | 0.00 | 44 | 1008.8 |
| 20260508155430 | 60 | 329 | 1.7 | 4.3 | 0.00 | 0.00 | 0.00 | 46 | 1008.8 |
| 20260508153952 | 60 | 318 | 2.6 | 6.1 | 0.00 | 0.00 | 0.00 | 47 | 1009.0 |
| 20260508152951 | 60 | 283 | 2.6 | 5.2 | 0.00 | 0.00 | 0.00 | 47 | 1009.1 |
| 20260508151952 | 59 | 287 | 2.6 | 6.1 | 0.00 | 0.00 | 0.00 | 46 | 1009.1 |
| 20260508150938 | 58 | 105 | 2.6 | 7.0 | 0.00 | 0.00 | 0.00 | 47 | 1009.1 |
| 20260508150419 | 58 | 6 | 2.6 | 7.8 | 0.00 | 0.00 | 0.00 | 47 | 1009.2 |
| 20260508144938 | 58 | 279 | 2.6 | 7.0 | 0.00 | 0.00 | 0.00 | 46 | 1009.2 |
| 20260508143939 | 57 | 272 | 1.7 | 4.3 | 0.00 | 0.00 | 0.00 | 48 | 1009.3 |
| 20260508142936 | 56 | 267 | 1.7 | 4.3 | 0.00 | 0.00 | 0.00 | 49 | 1009.4 |
| 20260508141934 | 56 | 301 | 1.7 | 4.3 | 0.00 | 0.00 | 0.00 | 46 | 1009.4 |
| 20260508140935 | 55 | 301 | 2.6 | 7.0 | 0.00 | 0.00 | 0.00 | 46 | 1009.3 |
| 20260508140842 | 55 | 301 | 2.6 | 6.1 | 0.00 | 0.00 | 0.00 | 50 | 1009.7 |
| 20260508134930 | 54 | 358 | 2.6 | 6.1 | 0.00 | 0.00 | 0.00 | 49 | 1009.7 |
| 20260508134418 | 54 | 296 | 1.7 | 5.2 | 0.00 | 0.00 | 0.00 | 52 | 1009.7 |
| 20260508132928 | 53 | 126 | 2.6 | 6.1 | 0.00 | 0.00 | 0.00 | 49 | 1009.7 |
| 20260508131929 | 53 | 215 | 1.7 | 3.5 | 0.00 | 0.00 | 0.00 | 51 | 1009.7 |
| 20260508130927 | 51 | 338 | 1.7 | 5.2 | 0.00 | 0.00 | 0.00 | 56 | 1009.7 |
| 20260508125926 | 50 | 237 | 0.9 | 4.3 | 0.00 | 0.00 | 0.00 | 57 | 1009.8 |
| 20260508125416 | 49 | 301 | 1.7 | 7.0 | 0.00 | 0.00 | 0.00 | 59 | 1009.8 |
| 20260508123927 | 48 | 301 | 1.7 | 5.2 | 0.00 | 0.00 | 0.00 | 62 | 1009.8 |
| 20260508122926 | 47 | 50 | 0.0 | 5.2 | 0.00 | 0.00 | 0.00 | 63 | 1009.8 |
| 20260508121927 | 46 | 101 | 0.9 | 2.6 | 0.00 | 0.00 | 0.00 | 64 | 1009.8 |
| 20260508120926 | 45 | 220 | 0.0 | 1.7 | 0.00 | 0.00 | 0.00 | 70 | 1009.9 |
| 20260508115922 | 43 | 301 | 0.9 | 2.6 | 0.00 | 0.00 | 0.00 | 72 | 1009.9 |
| 20260508114912 | 42 | 204 | 0.9 | 2.6 | 0.00 | 0.00 | 0.00 | 73 | 1009.9 |
| 20260508113912 | 40 | 301 | 0.0 | 0.0 | 0.00 | 0.00 | 0.00 | 77 | 1009.8 |
| 20260508112913 | 39 | 301 | 0.0 | 0.0 | 0.00 | 0.00 | 0.00 | 80 | 1009.7 |
| 20260508111906 | 38 | 183 | 0.0 | 0.0 | 0.00 | 0.00 | 0.00 | 82 | 1009.7 |
| 20260508110908 | 38 | 301 | 0.0 | 0.0 | 0.00 | 0.00 | 0.00 | 82 | 1009.7 |
| 20260508110339 | 37 | 183 | 0.0 | 0.0 | 0.00 | 0.00 | 0.00 | 82 | 1009.7 |
| 20260508105347 | 36 | 183 | 0.0 | 0.0 | 0.00 | 0.00 | 0.00 | 82 | 1009.7 |
| 20260508104347 | 36 | 183 | 0.0 | 0.0 | 0.00 | 0.00 | 0.00 | 82 | 1009.5 |
| 20260508102853 | 36 | 177 | 0.0 | 0.0 | 0.00 | 0.00 | 0.00 | 82 | 1009.2 |
| 20260508101850 | 36 | 183 | 0.9 | 1.7 | 0.00 | 0.00 | 0.00 | 82 | 1009.2 |
| 20260508100849 | 36 | 183 | 0.9 | 1.7 | 0.00 | 0.00 | 0.00 | 81 | 1008.8 |
| 20260508095850 | 36 | 183 | 0.0 | 0.9 | 0.00 | 0.00 | 0.00 | 82 | 1009.0 |
| 20260508094838 | 36 | 182 | 0.0 | 1.7 | 0.00 | 0.00 | 0.00 | 82 | 1009.0 |
| 20260508093839 | 36 | 182 | 0.0 | 0.0 | 0.00 | 0.00 | 0.00 | 81 | 1008.7 |
| 20260508092838 | 35 | 301 | 0.0 | 1.7 | 0.00 | 0.00 | 0.00 | 81 | 1008.8 |
| 20260508091836 | 36 | 301 | 0.0 | 1.7 | 0.00 | 0.00 | 0.00 | 81 | 1008.8 |
| 20260508090836 | 36 | 301 | 0.0 | 1.7 | 0.00 | 0.00 | 0.00 | 81 | 1008.6 |
| 20260508085835 | 36 | 301 | 0.0 | 1.7 | 0.00 | 0.00 | 0.00 | 80 | 1008.6 |
| 20260508084822 | 36 | 301 | 0.0 | 0.0 | 0.00 | 0.00 | 0.00 | 79 | 1008.6 |
| 20260508083822 | 36 | 301 | 0.0 | 1.7 | 0.00 | 0.00 | 0.00 | 79 | 1008.6 |
| 20260508082821 | 36 | 301 | 0.0 | 0.9 | 0.00 | 0.00 | 0.00 | 79 | 1008.4 |
| 20260508081820 | 36 | 301 | 0.0 | 0.9 | 0.00 | 0.00 | 0.00 | 78 | 1008.4 |
| 20260508080815 | 36 | 301 | 0.0 | 0.0 | 0.00 | 0.00 | 0.00 | 78 | 1008.2 |
| 20260508075815 | 37 | 301 | 0.0 | 0.9 | 0.00 | 0.00 | 0.00 | 78 | 1008.1 |
| 20260508074812 | 37 | 301 | 0.9 | 1.7 | 0.00 | 0.00 | 0.00 | 78 | 1008.1 |
| 20260508073814 | 37 | 301 | 0.0 | 0.0 | 0.00 | 0.01 | 0.00 | 78 | 1007.6 |
| 20260508072813 | 37 | 301 | 0.0 | 0.0 | 0.00 | 0.01 | 0.00 | 79 | 1007.6 |
| 20260508071812 | 37 | 301 | 0.0 | 0.0 | 0.00 | 0.01 | 0.00 | 77 | 1007.6 |
| 20260508071252 | 38 | 301 | 0.0 | 0.0 | 0.00 | 0.01 | 0.00 | 77 | 1007.5 |
| 20260508070248 | 38 | 301 | 0.0 | 0.0 | 0.00 | 0.01 | 0.00 | 77 | 1007.5 |
| 20260508064803 | 38 | 301 | 0.0 | 0.0 | 0.00 | 0.01 | 0.00 | 77 | 1007.5 |
| 20260508063803 | 38 | 301 | 0.0 | 0.9 | 0.00 | 0.01 | 0.00 | 77 | 1007.6 |
| 20260508063248 | 38 | 301 | 0.0 | 0.9 | 0.00 | 0.01 | 0.00 | 76 | 1007.6 |
| 20260508062238 | 39 | 301 | 0.0 | 1.7 | 0.00 | 0.01 | 0.00 | 76 | 1007.6 |
| 20260508060802 | 39 | 301 | 0.0 | 1.7 | 0.00 | 0.01 | 0.00 | 75 | 1007.6 |
| 20260508055804 | 40 | 301 | 0.0 | 0.0 | 0.00 | 0.01 | 0.00 | 74 | 1007.7 |
| 20260508055236 | 40 | 301 | 0.0 | 0.0 | 0.00 | 0.01 | 0.00 | 74 | 1007.7 |
| 20260508054231 | 40 | 301 | 0.0 | 0.0 | 0.00 | 0.01 | 0.00 | 74 | 1007.9 |
| 20260508053238 | 40 | 301 | 0.0 | 0.0 | 0.00 | 0.01 | 0.00 | 73 | 1008.1 |
| 20260508051756 | 41 | 301 | 0.0 | 0.0 | 0.00 | 0.01 | 0.00 | 72 | 1008.1 |
| 20260508050757 | 41 | 301 | 0.0 | 0.0 | 0.00 | 0.01 | 0.00 | 70 | 1008.1 |
| 20260508050239 | 41 | 301 | 0.0 | 0.0 | 0.00 | 0.01 | 0.00 | 70 | 1008.2 |
| 20260508045226 | 42 | 301 | 0.0 | 0.0 | 0.00 | 0.01 | 0.00 | 69 | 1008.2 |
| 20260508043746 | 42 | 301 | 0.0 | 0.0 | 0.00 | 0.01 | 0.00 | 69 | 1008.3 |
| 20260508042745 | 42 | 64 | 0.0 | 0.0 | 0.00 | 0.01 | 0.00 | 68 | 1008.3 |
| 20260508041742 | 43 | 64 | 0.0 | 0.0 | 0.00 | 0.02 | 0.00 | 66 | 1008.3 |
| 20260508040743 | 43 | 65 | 0.0 | 0.0 | 0.00 | 0.02 | 0.00 | 65 | 1008.3 |
| 20260508035741 | 44 | 301 | 0.0 | 0.0 | 0.00 | 0.02 | 0.02 | 65 | 1008.2 |
| 20260508034741 | 44 | 65 | 0.0 | 0.0 | 0.00 | 0.02 | 0.02 | 64 | 1008.2 |
| 20260508033742 | 44 | 65 | 0.0 | 0.0 | 0.00 | 0.04 | 0.02 | 65 | 1008.2 |
| 20260508033222 | 45 | 301 | 0.9 | 1.7 | 0.00 | 0.04 | 0.02 | 65 | 1008.2 |
| 20260508031739 | 45 | 14 | 0.0 | 2.6 | 0.00 | 0.04 | 0.02 | 63 | 1008.2 |
| 20260508030740 | 46 | 205 | 0.0 | 0.0 | 0.00 | 0.04 | 0.02 | 64 | 1008.1 |
| 20260508025740 | 46 | 205 | 0.0 | 0.0 | 0.00 | 0.04 | 0.02 | 62 | 1008.1 |
| 20260508024739 | 46 | 205 | 0.0 | 0.0 | 0.00 | 0.04 | 0.02 | 60 | 1008.1 |
| 20260508023740 | 47 | 205 | 0.0 | 1.7 | 0.00 | 0.04 | 0.02 | 59 | 1008.1 |
| 20260508022741 | 47 | 204 | 0.0 | 1.7 | 0.00 | 0.04 | 0.02 | 60 | 1008.0 |
| 20260508021725 | 48 | 301 | 0.0 | 0.0 | 0.00 | 0.05 | 0.02 | 61 | 1008.0 |
| 20260508021200 | 48 | 301 | 0.0 | 0.0 | 0.00 | 0.05 | 0.02 | 58 | 1008.1 |
| 20260508015724 | 48 | 301 | 0.0 | 1.7 | 0.00 | 0.05 | 0.02 | 57 | 1008.1 |
| 20260508014723 | 48 | 301 | 0.9 | 1.7 | 0.00 | 0.05 | 0.02 | 57 | 1008.1 |
| 20260508013721 | 49 | 301 | 0.0 | 0.0 | 0.00 | 0.05 | 0.02 | 57 | 1007.7 |
| 20260508012722 | 49 | 301 | 0.0 | 0.0 | 0.00 | 0.05 | 0.02 | 57 | 1007.6 |
| 20260508011712 | 50 | 301 | 0.0 | 0.0 | 0.00 | 0.05 | 0.02 | 56 | 1007.6 |
| 20260508010712 | 50 | 301 | 0.0 | 0.9 | 0.00 | 0.05 | 0.02 | 54 | 1007.4 |
| 20260508005712 | 50 | 301 | 0.0 | 1.7 | 0.00 | 0.05 | 0.02 | 53 | 1007.1 |
| 20260508004709 | 51 | 301 | 0.0 | 0.0 | 0.00 | 0.05 | 0.02 | 53 | 1007.1 |
| 20260508003708 | 51 | 301 | 0.0 | 0.0 | 0.00 | 0.05 | 0.02 | 52 | 1006.9 |
| 20260508002658 | 52 | 301 | 0.0 | 0.0 | 0.00 | 0.05 | 0.02 | 52 | 1006.9 |
| 20260508001700 | 53 | 264 | 0.0 | 0.0 | 0.00 | 0.05 | 0.02 | 50 | 1006.9 |
| 20260508000658 | 53 | 301 | 0.0 | 0.0 | 0.00 | 0.05 | 0.02 | 49 | 1006.7 |
| 20260507235658 | 54 | 301 | 0.0 | 0.9 | 0.00 | 0.05 | 0.02 | 47 | 1006.6 |
| 20260507234658 | 55 | 301 | 0.0 | 0.9 | 0.00 | 0.05 | 0.02 | 46 | 1006.6 |
| 20260507233657 | 55 | 301 | 0.9 | 2.6 | 0.00 | 0.05 | 0.02 | 45 | 1006.5 |
| 20260507232657 | 56 | 335 | 0.9 | 3.5 | 0.00 | 0.05 | 0.02 | 45 | 1006.3 |
| 20260507231657 | 56 | 301 | 1.7 | 4.3 | 0.00 | 0.05 | 0.02 | 43 | 1006.3 |
| 20260507230658 | 56 | 301 | 1.7 | 4.3 | 0.00 | 0.05 | 0.02 | 43 | 1006.1 |
| 20260507225651 | 57 | 301 | 1.7 | 3.5 | 0.00 | 0.06 | 0.02 | 42 | 1006.0 |
| 20260507224649 | 57 | 301 | 1.7 | 3.5 | 0.00 | 0.08 | 0.02 | 41 | 1006.0 |
| 20260507223647 | 57 | 288 | 1.7 | 4.3 | 0.00 | 0.09 | 0.02 | 43 | 1005.9 |
| 20260507222647 | 58 | 301 | 1.7 | 7.0 | 0.00 | 0.10 | 0.02 | 41 | 1005.8 |
| 20260507222121 | 58 | 333 | 1.7 | 4.3 | 0.00 | 0.11 | 0.02 | 41 | 1005.8 |
| 20260507220646 | 58 | 58 | 1.7 | 5.2 | 0.00 | 0.12 | 0.02 | 43 | 1005.6 |
| 20260507220118 | 58 | 221 | 1.7 | 4.3 | 0.00 | 0.15 | 0.02 | 41 | 1005.6 |
| 20260507214647 | 59 | 89 | 0.0 | 3.5 | 0.00 | 0.16 | 0.02 | 41 | 1005.6 |
| 20260507214125 | 59 | 85 | 1.7 | 4.3 | 0.00 | 0.17 | 0.02 | 41 | 1005.4 |
| 20260507212648 | 59 | 301 | 2.6 | 6.1 | 0.00 | 0.18 | 0.02 | 41 | 1005.5 |
| 20260507211644 | 60 | 301 | 2.6 | 7.0 | 0.00 | 0.18 | 0.02 | 40 | 1005.5 |
| 20260507210646 | 60 | 168 | 1.7 | 6.1 | 0.00 | 0.18 | 0.02 | 40 | 1005.5 |
| 20260507210124 | 60 | 301 | 1.7 | 4.3 | 0.00 | 0.18 | 0.02 | 41 | 1005.5 |